Flag for West Bank Weather past 2 weeks in Hebron, West Bank

Now
64 °F

Passing clouds.


Feels Like: 64 °F
Forecast: 42 / 62 °F
Wind: 9 mph from North

Location: Ben Gurion International Airport

Current Time: Mar 5, 2015 at 10:55:28 AM

Latest Report: Mar 5, 2015 at 10:20 AM


Visibility: N/A

Pressure: 30.15 "Hg

Humidity: 56%

Dew point: 48 °F

Location of HebronLocation

Historic Weather in Hebron — Graph

°F

Hebron temperature yesterday

Maximum temperature yesterday: 64 °F (at 11:20 AM)
Minimum temperature yesterday: 55 °F (at 12:20 AM)
Average temperature yesterday: 59 °F

Past Weeks' High & Low Weather Summary

 TemperatureHumidityPressure
High86 °F (Feb 27, 1:50 PM)94% (Feb 19, 12:50 PM)30.21 "Hg (Feb 19, 12:50 PM)
Low41 °F (Feb 19, 11:20 PM)19% (Feb 27, 11:50 AM)29.71 "Hg (Feb 20, 4:50 AM)
Average58 °F67%30.03 "Hg
* Reported Feb 18 9:20 AM — Mar 5 9:20 AM, Hebron, Weather by CustomWeather, © 2015

Note: Actual official high and low records may vary slightly from our data, if they occured in-between our weather recording intervals... More about our weather records

Advertising

Hebron weather history for previous 24 hours

 ConditionsComfort  
Time TempWeatherWind HumidityBarometerVisibility
9:20 AM
Thu, Mar 5
64 °FPassing clouds.3 mph64%30.15 "HgN/A
8:50 AM64 °FPassing clouds.1 mph64%30.15 "HgN/A
8:20 AM61 °FSunny.1 mph68%30.15 "Hg10 mi
7:50 AM57 °FSunny.3 mph77%30.15 "Hg10 mi
7:20 AM54 °FSunny.3 mph82%30.15 "Hg10 mi
6:50 AM52 °FPassing clouds.5 mph88%30.15 "HgN/A
6:20 AM52 °FSunny.2 mph88%30.12 "Hg10 mi
5:20 AM52 °FPassing clouds.3 mph88%30.12 "HgN/A
4:50 AM50 °FPassing clouds.2 mph94%30.12 "HgN/A
3:50 AM52 °FPassing clouds.1 mph88%30.09 "HgN/A
3:20 AM52 °FClear.1 mph88%30.09 "Hg10 mi
2:50 AM52 °FClear.2 mph88%30.09 "Hg10 mi
2:20 AM54 °FClear.5 mph88%30.09 "Hg10 mi
1:50 AM54 °FClear.3 mph88%30.09 "Hg10 mi
1:20 AM54 °FPassing clouds.2 mph88%30.09 "HgN/A
12:50 AM55 °FPassing clouds.1 mph88%30.12 "HgN/A
12:20 AM55 °FPassing clouds.1 mph88%30.12 "HgN/A
11:20 PM
Wed, Mar 4
57 °FPassing clouds.3 mph82%30.12 "HgN/A
10:50 PM57 °FPassing clouds.3 mph82%30.12 "HgN/A
10:20 PM57 °FPassing clouds.6 mph82%30.12 "HgN/A
9:50 PM57 °FPassing clouds.5 mph82%30.12 "HgN/A
9:20 PM59 °FPassing clouds.5 mph82%30.12 "HgN/A
8:50 PM59 °FLight rain. Passing clouds.5 mph82%30.12 "HgN/A
8:20 PM59 °FLight rain. Passing clouds.5 mph82%30.12 "HgN/A
7:50 PM59 °FPassing clouds.3 mph82%30.12 "HgN/A
7:20 PM59 °FPassing clouds.3 mph82%30.12 "HgN/A
6:50 PM61 °FPassing clouds.3 mph72%30.12 "HgN/A
6:20 PM61 °FPassing clouds.5 mph72%30.12 "HgN/A
5:50 PM61 °FPassing clouds.6 mph72%30.12 "HgN/A
5:20 PM63 °FScattered clouds.9 mph68%30.09 "HgN/A
4:50 PM63 °FPassing clouds.12 mph68%30.09 "HgN/A
4:20 PM64 °FScattered clouds.12 mph64%30.09 "HgN/A
3:50 PM64 °FScattered clouds.10 mph68%30.09 "HgN/A
3:20 PM64 °FScattered clouds.9 mph64%30.09 "HgN/A
2:50 PM64 °FScattered clouds.13 mph64%30.12 "HgN/A
2:20 PM64 °FScattered clouds.13 mph64%30.12 "HgN/A
1:50 PM64 °FScattered clouds.14 mph64%30.12 "HgN/A
1:20 PM64 °FPartly sunny.12 mph68%30.12 "HgN/A
12:50 PM64 °FPartly sunny.15 mph68%30.12 "HgN/A
12:20 PM64 °FPartly sunny.14 mph73%30.12 "HgN/A
11:50 AM63 °FLight rain. Scattered clouds.15 mph77%30.15 "HgN/A
11:20 AM64 °FScattered clouds.8 mph73%30.15 "HgN/A
10:50 AM63 °FScattered clouds.5 mph83%30.15 "HgN/A
10:20 AM63 °FScattered clouds.7 mph73%30.15 "HgN/A
Weather by CustomWeather, © 2015

See weather overviewHow to use our weather pages